Regional Weather Roundup
Issued by NWS Lake Charles, LA

Home | Current Version | Previous Version | Text Only | Print | Product List | Glossary On
Versions: 1 2 3 4 5 6 7 8 9 10 11 12 13 14 15 16 17 18 19 20 21 22 23 24 25 26 27 28 29 30 31 32 33 34 35 36 37 38 39 40 41 42 43 44 45 46 47 48
000
ASUS44 KLCH 200710
RWRLCH
RWRLCH
REGIONAL WEATHER ROUNDUP
NATIONAL WEATHER SERVICE LAKE CHARLES LA
100 AM CST SAT DEC 20 2014

Note: "fair" indicates few or no clouds below 12,000 feet with no
significant weather and/or obstructions to visibility.


ACROSS SOUTHEAST TEXAS

CITY           SKY/WX    TMP DP  RH WIND       PRES   REMARKS
BEAUMONT       CLOUDY    50  49  96 N13       30.11S FOG
BEAUMONT CITY  CLOUDY    49  48  99 N10       30.13S
ORANGE         CLOUDY    49  49  99 N9        30.13S FOG
JASPER         CLOUDY    48  47  95 N3        30.16F FOG
$$

ACROSS CENTRAL LOUISIANA

CITY           SKY/WX    TMP DP  RH WIND       PRES   REMARKS
LEESVILLE      CLOUDY    47  46  96 NE9       30.13S
FULLERTON      CLOUDY    50  45  83 N7        30.12S
ALEXANDRIA INT CLOUDY    47  46  97 NE7       30.14S
ESLER FIELD    CLOUDY    47  45  93 VRB5      30.15S
DERIDDER       CLOUDY    48  46  95 N8        30.15S
OAKDALE        CLOUDY    48  46  93 N7        30.13S FOG
OPELOUSAS      CLOUDY    47  46  96 N9G16     30.11S
$$

ACROSS SOUTHWEST AND SOUTH CENTRAL LOUISIANA

CITY           SKY/WX    TMP DP  RH WIND       PRES   REMARKS
SULPHUR        CLOUDY    51  50  98 N12G18    30.11S
LAKE CHARLES   CLOUDY    50  48  93 MISG      30.10S FOG
CHENNAULT INT  CLOUDY    49  48  97 N12       30.11S FOG
CAMERON PHI    CLOUDY    52  50  93 NE16      30.11S
DEQUINCY       CLOUDY    48  48 100 N6        30.12F
JENNINGS       CLOUDY    48  47  97 N10G18    30.10S
LAFAYETTE      CLOUDY    49  49 100 N12       30.09S
NEW IBERIA     CLOUDY    50  48  93 N15       30.09S
ABBEVILLE      CLOUDY    48  48  97 N10G20    30.08F
PATTERSON      CLOUDY    52  48  87 NE9       30.05S
SALT POINT       N/A     55  51  86 VRB6      30.02S
$$

SELECTED SITES ACROSS THE REGION

CITY           SKY/WX    TMP DP  RH WIND       PRES   REMARKS
HOUSTON BUSH   CLOUDY    52  50  93 N13       30.14S
HOUSTON HOBBY  CLOUDY    53  52  96 N9        30.12F
GALVESTON      LGT RAIN  53  53 100 N17       30.11F
COLLEGE STAT   CLOUDY    49  46  90 N12       30.17F
CONROE         CLOUDY    50  48  93 N9        30.15S
HUNTSVILLE     CLOUDY    49  48  97 N3        30.17R FOG
LUFKIN         CLOUDY    50  46  86 N8        30.16F
SHREVEPORT     CLOUDY    47  44  90 N8        30.19S
MONROE         CLOUDY    45  43  93 NE8       30.21S
NATCHEZ MS     CLOUDY    46  43  87 N8        30.15R
BATON ROUGE    LGT RAIN  48  46  93 N5        30.10R
N.O. INTL ARPT LGT RAIN  51  48  89 NE13      30.06F FOG
SLIDELL        RAIN      50  47  89 N8        30.07F FOG
$$

MARINE REPORTS

STATION/POSITION TIME  TEMP    WIND        PRES    VSBY  WAVE
                       AIR SEA DIR/SP/G                  HT/PER
                 (UTC) (F)     (DEG/KT/KT) (MB)    (MI)  (FT/S)
BUOY 30 S HIGH I 0700   53 64   10/ 17/ 21 1018.1F         5/ 6
SEA RIM ST PARK  0700   50      10/ 11/ 16 1019.7S
PORT ARTHUR      0700      61   10/ 10/ 13 1019.4R
SABINE PASS N    0700   51 60   10/ 14/ 19 1019.1R
TEXAS POINT      NOT AVBL
CALCASIEU PASS   0700   51 61   40/ 16/ 20   N/A
LK CHARLES BEACH 0700   49 60              1019.4F
MARSH ISLAND     NOT AVBL
FRESH WATER LOCK 0700   52 60  360/ 10/ 17 1017.6R
AMERADA PASS     0700   51 50   60/  7/ 13 1016.5F
$$


USA.gov is the U.S. government's official web portal to all federal, state and local government web resources and services.